IEDINB57 Weather Reports


time (UTC)temp
C
wind
direction
speed
KPH
gust
KPH
rain 1hr
cm
rain 24hr
cm
rain mn
cm
humidity
%
barometer
mb
20260506073053 4 90 0.0 4.8 0.00 0.00 0.00 71 1018.3
20260506072548 3 89 1.6 6.4 0.00 0.00 0.00 72 1018.4
20260506072047 3 0 3.2 6.4 0.00 0.00 0.00 73 1018.4
20260506071556 3 93 0.0 4.8 0.00 0.00 0.00 71 1018.3
20260506071047 3 94 1.6 4.8 0.00 0.00 0.00 71 1018.4
20260506070549 3 0 0.0 3.2 0.00 0.00 0.00 70 1018.3
20260506062051 2 0 0.0 0.0 0.00 0.00 0.00 79 1018.1
20260506061554 2 0 0.0 0.0 0.00 0.00 0.00 81 1018.2
20260506061047 2 0 0.0 0.0 0.00 0.00 0.00 83 1018.0
20260506060548 1 0 0.0 0.0 0.00 0.00 0.00 84 1018.1
20260506060112 1 0 0.0 0.0 0.00 0.00 0.00 86 1018.1
20260506051047 0 0 0.0 0.0 0.00 0.00 0.00 88 1018.2
20260506050547 0 0 0.0 0.0 0.00 0.00 0.00 88 1018.1
20260506045050 0 0 0.0 0.0 0.00 0.00 0.00 88 1018.2
20260506044607 0 0 0.0 0.0 0.00 0.00 0.00 88 1018.1
20260506044048 0 0 0.0 0.0 0.00 0.00 0.00 88 1018.1
20260506043548 0 0 0.0 0.0 0.00 0.00 0.00 88 1018.1
20260506043054 0 0 0.0 1.6 0.00 0.00 0.00 88 1018.2
20260506042548 0 0 0.0 1.6 0.00 0.00 0.00 88 1018.1
20260506042046 0 0 0.0 1.6 0.00 0.00 0.00 88 1018.1
20260506041552 0 0 0.0 1.6 0.00 0.00 0.00 88 1017.9
20260506041047 0 0 0.0 1.6 0.00 0.00 0.00 88 1018.1
20260506040547 0 0 0.0 1.6 0.00 0.00 0.00 88 1018.1
20260506040056 0 0 0.0 1.6 0.00 0.00 0.00 87 1017.9
20260506035547 0 0 0.0 0.0 0.00 0.00 0.00 87 1018.0
20260506035046 0 0 0.0 0.0 0.00 0.00 0.00 87 1018.1
20260506034557 0 0 0.0 0.0 0.00 0.00 0.00 87 1018.2
20260506034048 0 0 0.0 0.0 0.00 0.00 0.00 87 1018.1
20260506033548 0 0 0.0 1.6 0.00 0.00 0.00 87 1018.2
20260506033052 0 0 0.0 1.6 0.00 0.00 0.00 87 1018.2
20260506032551 0 0 0.0 1.6 0.00 0.00 0.00 86 1018.2
20260506032048 0 0 0.0 1.6 0.00 0.00 0.00 86 1018.3
20260506031559 0 0 0.0 0.0 0.00 0.00 0.00 87 1018.3
20260506031047 0 0 0.0 0.0 0.00 0.00 0.00 86 1018.3
20260506030548 0 0 0.0 0.0 0.00 0.00 0.00 86 1018.3
20260506030057 0 0 0.0 0.0 0.00 0.00 0.00 86 1018.4
20260506025547 0 0 0.0 0.0 0.00 0.00 0.00 86 1018.3
20260506025047 0 0 0.0 0.0 0.00 0.00 0.00 86 1018.3
20260506024602 0 0 0.0 0.0 0.00 0.00 0.00 86 1018.3
20260506024047 0 0 0.0 0.0 0.00 0.00 0.00 87 1018.3
20260506023549 0 0 0.0 1.6 0.00 0.00 0.00 87 1018.4
20260506023103 0 0 0.0 1.6 0.00 0.00 0.00 86 1018.4
20260506022548 0 0 0.0 1.6 0.00 0.00 0.00 87 1018.3
20260506022048 0 0 0.0 1.6 0.00 0.00 0.00 87 1018.1
20260506021556 0 0 0.0 1.6 0.00 0.00 0.00 86 1018.3
20260506021049 0 0 0.0 3.2 0.00 0.00 0.00 86 1018.4
20260506020548 0 0 0.0 3.2 0.00 0.00 0.00 86 1018.3
20260506020054 0 0 0.0 0.0 0.00 0.00 0.00 86 1018.4
20260506015547 0 0 0.0 0.0 0.00 0.00 0.00 85 1018.5
20260506015047 1 0 0.0 0.0 0.00 0.00 0.00 86 1018.6
20260506014557 0 0 0.0 0.0 0.00 0.00 0.00 86 1018.6
20260506014046 0 0 0.0 0.0 0.00 0.00 0.00 85 1018.6
20260506013551 0 0 0.0 0.0 0.00 0.00 0.00 85 1018.7
20260506013056 0 0 0.0 0.0 0.00 0.00 0.00 85 1018.6
20260506012547 0 0 0.0 0.0 0.00 0.00 0.00 85 1018.7
20260506012048 0 0 0.0 0.0 0.00 0.00 0.00 84 1018.8
20260506011554 1 0 0.0 0.0 0.00 0.00 0.00 84 1018.7
20260506011047 1 0 0.0 0.0 0.00 0.00 0.00 84 1018.8
20260506010547 1 0 0.0 0.0 0.00 0.00 0.00 84 1018.9
20260506010053 1 0 0.0 0.0 0.00 0.00 0.00 83 1018.9
20260506005549 1 0 0.0 0.0 0.00 0.00 0.00 83 1018.9
20260506005048 1 0 0.0 0.0 0.00 0.00 0.00 83 1018.8
20260506004552 1 0 0.0 0.0 0.00 0.00 0.00 83 1018.9
20260506004048 1 0 0.0 0.0 0.00 0.00 0.00 83 1018.9
20260506003548 1 0 0.0 0.0 0.00 0.00 0.00 83 1019.0
20260506003054 1 0 0.0 0.0 0.00 0.00 0.00 83 1018.8
20260506002549 0 0 0.0 0.0 0.00 0.00 0.00 83 1018.9
20260506002048 0 0 0.0 0.0 0.00 0.00 0.00 83 1018.9
20260506001551 0 0 0.0 1.6 0.00 0.00 0.00 82 1018.8
20260506001049 0 0 0.0 1.6 0.00 0.00 0.00 82 1018.7
20260506000549 1 94 0.0 0.0 0.00 0.00 0.00 81 1018.7
20260506000054 1 0 0.0 0.0 0.00 0.00 0.00 81 1018.8
20260505235551 1 0 0.0 0.0 0.00 0.00 0.00 80 1018.7
20260505235048 1 0 0.0 0.0 0.00 0.00 0.00 80 1018.8
20260505234555 1 0 0.0 0.0 0.00 0.00 0.00 80 1018.7
20260505234054 1 0 0.0 0.0 0.00 0.00 0.00 80 1018.9
20260505233550 1 0 0.0 0.0 0.00 0.00 0.00 80 1018.9
20260505233053 1 0 0.0 0.0 0.00 0.00 0.00 79 1019.0
20260505232552 1 0 0.0 0.0 0.00 0.00 0.00 79 1018.8
20260505232051 1 0 0.0 0.0 0.00 0.00 0.00 78 1018.8
20260505231602 1 0 0.0 0.0 0.00 0.00 0.00 78 1018.9
20260505231048 1 0 0.0 0.0 0.00 0.00 0.00 78 1018.8
20260505230548 1 0 0.0 0.0 0.00 0.00 0.00 78 1018.9
20260505230059 2 0 0.0 0.0 0.00 0.00 0.00 78 1019.0
20260505225548 1 0 0.0 1.6 0.00 0.00 0.00 79 1019.1
20260505225051 1 0 0.0 1.6 0.00 0.00 0.00 78 1019.0
20260505224556 2 94 0.0 1.6 0.00 0.00 0.00 77 1018.9
20260505224051 2 0 0.0 3.2 0.00 0.00 0.00 76 1018.9
20260505223547 2 0 0.0 3.2 0.00 0.00 0.00 77 1018.9
20260505223059 2 0 0.0 1.6 0.00 0.00 0.00 77 1018.9
20260505222551 2 0 0.0 0.0 0.00 0.00 0.00 77 1019.2
20260505222050 2 0 0.0 1.6 0.00 0.00 0.00 76 1019.2
20260505221557 2 0 0.0 1.6 0.00 0.00 0.00 76 1019.2
20260505221047 2 0 0.0 3.2 0.00 0.00 0.00 75 1019.2
20260505220550 2 0 0.0 3.2 0.00 0.00 0.00 74 1019.1
20260505220059 2 0 0.0 1.6 0.00 0.00 0.00 75 1019.1
20260505215548 2 0 0.0 0.0 0.00 0.00 0.00 75 1019.1
20260505215048 2 0 0.0 0.0 0.00 0.00 0.00 74 1019.1
20260505214603 2 0 0.0 1.6 0.00 0.00 0.00 74 1019.1
20260505214051 3 0 0.0 1.6 0.00 0.00 0.00 73 1019.1
20260505213550 3 0 0.0 0.0 0.00 0.00 0.00 73 1019.0
20260505213104 3 0 0.0 0.0 0.00 0.00 0.00 73 1019.1
20260505212550 3 0 0.0 1.6 0.00 0.00 0.00 73 1019.1
20260505212050 3 0 0.0 6.4 0.00 0.00 0.00 73 1019.1
20260505211605 3 0 0.0 6.4 0.00 0.00 0.00 72 1019.1
20260505211051 3 95 0.0 3.2 0.00 0.00 0.00 72 1019.1
20260505210550 3 95 0.0 6.4 0.00 0.00 0.00 71 1019.1
20260505210055 3 95 0.0 6.4 0.00 0.00 0.00 71 1019.1
20260505205550 3 0 1.6 6.4 0.00 0.00 0.00 71 1019.1
20260505205049 3 0 0.0 6.4 0.00 0.00 0.00 70 1019.1
20260505204555 3 0 0.0 6.4 0.00 0.00 0.00 70 1019.1
20260505204049 3 91 1.6 12.9 0.00 0.00 0.00 69 1019.2
20260505203548 3 92 3.2 12.9 0.00 0.00 0.00 69 1019.1
20260505203103 3 112 3.2 11.3 0.00 0.00 0.00 69 1019.2
20260505202548 3 117 1.6 11.3 0.00 0.00 0.00 68 1019.2
20260505202050 3 97 1.6 11.3 0.00 0.00 0.00 68 1019.2
20260505201550 3 100 1.6 9.7 0.00 0.00 0.00 68 1019.2
20260505201048 3 94 3.2 9.7 0.00 0.00 0.00 68 1019.1
20260505200551 4 110 3.2 14.5 0.00 0.00 0.00 68 1019.2
20260505200055 4 110 4.8 14.5 0.00 0.00 0.00 68 1019.1
20260505195549 4 75 3.2 11.3 0.00 0.00 0.00 67 1019.3
20260505195048 4 82 3.2 11.3 0.00 0.00 0.00 67 1019.1
20260505194552 4 103 3.2 12.9 0.00 0.00 0.00 67 1019.1
20260505194050 4 113 3.2 12.9 0.00 0.00 0.00 67 1019.1
20260505193550 4 108 1.6 14.5 0.00 0.00 0.00 67 1018.9
20260505193056 4 104 1.6 14.5 0.00 0.00 0.00 67 1018.9
20260505192550 4 132 3.2 12.9 0.00 0.00 0.00 67 1018.8
20260505192049 4 45 1.6 6.4 0.00 0.00 0.00 68 1018.8
20260505191610 4 44 1.6 17.7 0.00 0.00 0.00 67 1018.9
20260505191049 4 43 3.2 17.7 0.00 0.00 0.00 67 1018.8
20260505190548 4 97 1.6 16.1 0.00 0.00 0.00 66 1018.9
20260505190054 4 74 4.8 16.1 0.00 0.00 0.00 66 1018.7
20260505185547 5 53 3.2 19.3 0.00 0.00 0.00 66 1018.7
20260505185051 5 19 4.8 19.3 0.00 0.00 0.00 65 1018.7
20260505184553 5 116 3.2 14.5 0.00 0.00 0.00 65 1018.7
20260505184048 5 60 3.2 12.9 0.00 0.00 0.00 65 1018.8
20260505183547 5 88 3.2 17.7 0.00 0.00 0.00 65 1018.8
20260505183056 5 13 6.4 17.7 0.00 0.00 0.00 66 1018.7
20260505182550 5 124 3.2 12.9 0.00 0.00 0.00 65 1018.7
20260505182052 5 131 3.2 16.1 0.00 0.00 0.00 65 1018.7
20260505181551 5 116 4.8 16.1 0.00 0.00 0.00 64 1018.7
20260505181049 5 111 1.6 12.9 0.00 0.00 0.00 65 1018.6
20260505180548 5 0 4.8 12.9 0.00 0.00 0.00 65 1018.8
20260505180103 5 132 4.8 17.7 0.00 0.00 0.00 64 1018.9
20260505175551 5 85 1.6 17.7 0.00 0.00 0.00 64 1018.7
20260505175050 5 73 4.8 19.3 0.00 0.00 0.00 63 1018.6
20260505174604 5 19 4.8 19.3 0.00 0.00 0.00 64 1018.5
20260505174046 5 140 4.8 17.7 0.00 0.00 0.00 64 1018.6
20260505173547 5 360 1.6 17.7 0.00 0.00 0.00 65 1018.6
20260505173053 5 36 6.4 17.7 0.00 0.00 0.00 65 1018.6
20260505172547 5 112 4.8 16.1 0.00 0.00 0.00 64 1018.7
20260505172047 5 67 3.2 12.9 0.00 0.00 0.00 65 1018.6
20260505171555 5 82 3.2 12.9 0.00 0.00 0.00 65 1018.7
20260505171048 5 131 4.8 17.7 0.00 0.00 0.00 64 1018.7
20260505170551 5 80 3.2 17.7 0.00 0.00 0.00 65 1018.7
20260505170055 5 74 6.4 17.7 0.00 0.00 0.00 64 1018.7
20260505165548 5 79 4.8 20.9 0.00 0.00 0.00 65 1018.6
20260505165047 5 126 6.4 20.9 0.00 0.00 0.00 65 1018.6
20260505164554 5 109 4.8 17.7 0.00 0.00 0.00 66 1018.6
20260505164048 6 59 3.2 19.3 0.00 0.00 0.00 66 1018.5
20260505163547 6 83 4.8 19.3 0.00 0.00 0.00 66 1018.4
20260505163051 6 121 4.8 17.7 0.00 0.00 0.00 66 1018.6
20260505162547 5 14 4.8 16.1 0.00 0.00 0.00 66 1018.6
20260505162047 5 88 4.8 16.1 0.00 0.00 0.00 66 1018.5
20260505161554 5 39 4.8 16.1 0.00 0.00 0.00 66 1018.6
20260505161047 5 44 6.4 19.3 0.00 0.00 0.00 65 1018.6
20260505160547 5 55 3.2 19.3 0.00 0.00 0.00 66 1018.6
20260505153055 6 83 8.0 17.7 0.00 0.00 0.00 67 1018.5
20260505152548 6 52 3.2 24.1 0.00 0.00 0.00 68 1018.5
20260505152050 6 103 4.8 24.1 0.00 0.00 0.00 67 1018.5
20260505151552 6 346 6.4 24.1 0.00 0.00 0.00 67 1018.5
20260505151048 6 20 6.4 24.1 0.00 0.00 0.00 68 1018.5
20260505150547 6 84 8.0 24.1 0.00 0.00 0.00 68 1018.5
20260505140548 6 344 3.2 17.7 0.00 0.00 0.00 72 1018.3
20260505130110 5 68 4.8 17.7 0.00 0.00 0.00 74 1018.2
20260505124607 6 360 3.2 17.7 0.00 0.00 0.00 73 1018.2
20260505124052 6 25 4.8 17.7 0.00 0.00 0.00 73 1018.1
20260505123553 6 49 6.4 16.1 0.00 0.00 0.00 72 1018.1
20260505123106 5 67 4.8 17.7 0.00 0.00 0.00 72 1018.0
20260505122550 6 102 8.0 17.7 0.00 0.00 0.00 72 1018.0
20260505122049 6 105 4.8 16.1 0.00 0.00 0.00 72 1018.0
20260505121554 6 22 4.8 17.7 0.00 0.00 0.00 73 1018.0
20260505121049 6 14 4.8 19.3 0.00 0.00 0.00 73 1018.1
20260505120550 6 355 6.4 19.3 0.00 0.00 0.00 72 1017.9
20260505120056 6 107 4.8 17.7 0.00 0.00 0.00 72 1018.0
20260505115549 6 344 6.4 22.5 0.00 0.00 0.00 71 1017.9
20260505115050 7 352 8.0 25.7 0.00 0.00 0.00 72 1017.8
20260505114556 7 5 9.7 25.7 0.00 0.00 0.00 71 1017.8
20260505114050 7 65 9.7 27.4 0.00 0.00 0.00 71 1017.7
20260505113548 7 34 9.7 27.4 0.00 0.00 0.00 70 1017.6
20260505113054 8 104 9.7 27.4 0.00 0.00 0.00 70 1017.6
20260505112550 8 289 8.0 27.4 0.00 0.00 0.00 72 1017.6
20260505112050 8 115 11.3 25.7 0.00 0.00 0.00 72 1017.4
20260505111555 8 30 8.0 24.1 0.00 0.00 0.00 74 1017.7
20260505111050 7 13 9.7 30.6 0.00 0.00 0.00 74 1017.4
20260505110551 7 43 8.0 30.6 0.00 0.00 0.00 72 1017.4
20260505102050 8 355 1.6 12.9 0.00 0.00 0.00 61 1017.0
20260505101607 8 51 1.6 12.9 0.00 0.00 0.00 61 1017.1
20260505101053 8 113 3.2 12.9 0.00 0.00 0.00 59 1017.0
20260505100550 8 342 3.2 12.9 0.00 0.00 0.00 62 1017.0
20260505100105 8 48 3.2 14.5 0.00 0.00 0.00 63 1016.9
20260505095550 8 17 1.6 14.5 0.00 0.00 0.00 64 1017.0
20260505095049 8 78 3.2 14.5 0.00 0.00 0.00 63 1016.8
20260505094552 8 86 3.2 9.7 0.00 0.00 0.00 64 1016.9
20260505094049 7 50 3.2 14.5 0.00 0.00 0.00 64 1016.7
20260505093549 7 336 3.2 14.5 0.00 0.00 0.00 64 1016.8
20260505093102 7 28 3.2 12.9 0.00 0.00 0.00 63 1016.8
20260505092551 7 360 4.8 16.1 0.00 0.00 0.00 64 1016.7
20260505092050 7 355 4.8 16.1 0.00 0.00 0.00 62 1016.7
20260505091555 8 15 3.2 11.3 0.00 0.00 0.00 63 1016.6
20260505091049 8 355 4.8 9.7 0.00 0.00 0.00 64 1016.6
20260505090549 7 5 3.2 12.9 0.00 0.00 0.00 64 1016.6
20260505090054 7 360 3.2 12.9 0.00 0.00 0.00 65 1016.5
20260505085550 7 103 3.2 12.9 0.00 0.00 0.00 67 1016.6
20260505085051 7 38 3.2 12.9 0.00 0.00 0.00 68 1016.6
20260505084557 7 5 3.2 12.9 0.00 0.00 0.00 66 1016.6
20260505084049 7 38 3.2 9.7 0.00 0.00 0.00 69 1016.7
20260505083549 7 17 3.2 14.5 0.00 0.00 0.00 69 1016.6
20260505083110 7 0 3.2 14.5 0.00 0.00 0.00 69 1016.6
20260505082549 7 46 3.2 11.3 0.00 0.00 0.00 70 1016.5
20260505082050 7 93 3.2 12.9 0.00 0.00 0.00 69 1016.3
20260505081605 7 330 3.2 12.9 0.00 0.00 0.00 71 1016.3
20260505081050 6 294 1.6 11.3 0.00 0.00 0.00 70 1016.3
20260505080553 6 335 3.2 16.1 0.00 0.00 0.00 69 1016.3
20260505080109 6 338 3.2 16.1 0.00 0.00 0.00 72 1016.3
20260505075550 6 348 1.6 11.3 0.00 0.00 0.00 71 1016.1
20260505075050 6 342 4.8 11.3 0.00 0.00 0.00 69 1016.1
20260505074604 6 278 3.2 14.5 0.00 0.00 0.00 70 1016.1
20260505074050 6 292 3.2 14.5 0.00 0.00 0.00 72 1016.1
20260505073550 7 331 3.2 14.5 0.00 0.00 0.00 72 1016.0